When you browse on this site, cookies collect data to enhance your experience and personalize the content and advertising you see.
Visit our Privacy Policy to learn more. By continuing to use the site, you agree to this use of cookies and data.
  • In Latvia
  • List of Countries
  • For 7 days
  • Water Temperature
  • Weather Map
  • Weather Widgets
  • user-avatar
    Login

    Hourly Weather Ermakov

    Today, 24 August, Saturday

    Time Temperature Precipitation Wind Pressure Humidity
    00:00 +32°C° 0 mm 7 mps 751 mmHg 31%
    01:00 +32°C° 0 mm 7 mps 751 mmHg 31%
    02:00 +30°C° 0 mm 6 mps 751 mmHg 31%
    03:00 +30°C° 0 mm 6 mps 751 mmHg 32%
    04:00 +29°C° 0 mm 5 mps 751 mmHg 34%
    05:00 +28°C° 0 mm 5 mps 751 mmHg 37%
    06:00 +28°C° 0 mm 5 mps 751 mmHg 40%
    07:00 +29°C° 0 mm 5 mps 751 mmHg 37%
    08:00 +32°C° 0 mm 6 mps 752 mmHg 35%
    09:00 +33°C° 0 mm 7 mps 752 mmHg 35%
    10:00 +35°C° 0 mm 7 mps 752 mmHg 31%
    11:00 +38°C° 0 mm 7 mps 751 mmHg 26%
    12:00 +40°C° 0 mm 7 mps 751 mmHg 21%
    13:00 +40°C° 0 mm 7 mps 751 mmHg 21%
    14:00 +40°C° 0 mm 7 mps 751 mmHg 21%
    15:00 +40°C° 0 mm 8 mps 751 mmHg 23%
    16:00 +39°C° 0 mm 8 mps 750 mmHg 26%
    17:00 +38°C° 0 mm 8 mps 750 mmHg 28%
    18:00 +37°C° 0 mm 8 mps 750 mmHg 31%
    19:00 +35°C° 0 mm 8 mps 750 mmHg 33%
    20:00 +33°C° 0 mm 8 mps 751 mmHg 35%
    21:00 +32°C° 0 mm 8 mps 751 mmHg 37%
    22:00 +30°C° 0.2 mm 7 mps 751 mmHg 40%
    23:00 +29°C° 0.2 mm 6 mps 751 mmHg 42%

    Tomorrow, 25 August, Sunday

    Time Temperature Precipitation Wind Pressure Humidity
    00:00 +29°C° 0.2 mm 5 mps 751 mmHg 44%
    01:00 +28°C° 0.2 mm 5 mps 751 mmHg 47%
    02:00 +27°C° 0.2 mm 4 mps 751 mmHg 50%
    03:00 +26°C° 0.2 mm 4 mps 751 mmHg 53%
    04:00 +26°C° 0.2 mm 3 mps 751 mmHg 56%
    05:00 +25°C° 0.2 mm 3 mps 751 mmHg 60%
    06:00 +24°C° 0.2 mm 3 mps 751 mmHg 63%
    07:00 +26°C° 0 mm 4 mps 752 mmHg 57%
    08:00 +28°C° 0 mm 5 mps 752 mmHg 51%
    09:00 +30°C° 0 mm 5 mps 752 mmHg 45%
    10:00 +32°C° 0 mm 5 mps 752 mmHg 40%
    11:00 +34°C° 0 mm 6 mps 752 mmHg 36%
    12:00 +35°C° 0 mm 6 mps 752 mmHg 31%
    13:00 +35°C° 0 mm 6 mps 752 mmHg 30%
    14:00 +35°C° 0 mm 6 mps 752 mmHg 30%
    15:00 +35°C° 0 mm 6 mps 752 mmHg 29%
    16:00 +34°C° 0 mm 6 mps 752 mmHg 31%
    17:00 +33°C° 0 mm 5 mps 752 mmHg 33%
    18:00 +32°C° 0 mm 5 mps 752 mmHg 35%
    19:00 +30°C° 0 mm 4 mps 752 mmHg 40%
    20:00 +28°C° 0 mm 4 mps 753 mmHg 45%
    21:00 +26°C° 0 mm 3 mps 753 mmHg 50%
    22:00 +25°C° 0 mm 3 mps 754 mmHg 54%
    23:00 +24°C° 0 mm 2 mps 754 mmHg 58%

    Day after tomorrow, 26 August, Monday

    Time Temperature Precipitation Wind Pressure Humidity
    00:00 +23°C° 0 mm 1 mps 754 mmHg 62%
    01:00 +23°C° 0 mm 1 mps 754 mmHg 64%
    02:00 +22°C° 0 mm 1 mps 754 mmHg 65%
    03:00 +22°C° 0 mm 1 mps 755 mmHg 66%
    04:00 +22°C° 0 mm 1 mps 755 mmHg 66%
    05:00 +21°C° 0 mm 2 mps 755 mmHg 66%
    06:00 +21°C° 0 mm 2 mps 755 mmHg 66%
    07:00 +24°C° 0 mm 3 mps 755 mmHg 58%
    08:00 +25°C° 0 mm 4 mps 756 mmHg 49%
    09:00 +27°C° 0 mm 5 mps 756 mmHg 41%
    10:00 +28°C° 0 mm 5 mps 756 mmHg 39%
    11:00 +29°C° 0 mm 5 mps 756 mmHg 37%
    12:00 +32°C° 0 mm 5 mps 756 mmHg 34%
    13:00 +32°C° 0 mm 5 mps 755 mmHg 33%
    14:00 +32°C° 0 mm 6 mps 755 mmHg 32%
    15:00 +32°C° 0 mm 6 mps 755 mmHg 31%
    16:00 +30°C° 0 mm 6 mps 755 mmHg 33%
    17:00 +30°C° 0 mm 6 mps 755 mmHg 34%
    18:00 +29°C° 0 mm 5 mps 755 mmHg 36%
    19:00 +27°C° 0 mm 5 mps 755 mmHg 37%
    20:00 +26°C° 0 mm 5 mps 755 mmHg 38%
    21:00 +23°C° 0 mm 5 mps 755 mmHg 39%
    22:00 +23°C° 0 mm 5 mps 755 mmHg 38%
    23:00 +22°C° 0 mm 4 mps 755 mmHg 38%

    27 August, Tuesday

    Time Temperature Precipitation Wind Pressure Humidity
    00:00 +21°C° 0 mm 4 mps 755 mmHg 38%
    01:00 +21°C° 0 mm 4 mps 755 mmHg 39%
    02:00 +20°C° 0 mm 4 mps 755 mmHg 40%
    03:00 +20°C° 0 mm 4 mps 755 mmHg 40%
    04:00 +20°C° 0 mm 4 mps 754 mmHg 40%
    05:00 +19°C° 0 mm 3 mps 754 mmHg 40%
    06:00 +19°C° 0 mm 3 mps 754 mmHg 40%
    07:00 +21°C° 0 mm 3 mps 754 mmHg 39%
    08:00 +24°C° 0 mm 3 mps 754 mmHg 37%
    09:00 +27°C° 0 mm 4 mps 754 mmHg 35%
    10:00 +28°C° 0 mm 3 mps 754 mmHg 34%
    11:00 +29°C° 0 mm 3 mps 753 mmHg 32%
    12:00 +30°C° 0 mm 3 mps 753 mmHg 31%
    13:00 +30°C° 0 mm 3 mps 753 mmHg 30%
    14:00 +31°C° 0 mm 2 mps 752 mmHg 29%
    15:00 +31°C° 0 mm 2 mps 752 mmHg 28%
    16:00 +30°C° 0 mm 2 mps 751 mmHg 29%
    17:00 +29°C° 0 mm 2 mps 751 mmHg 29%
    18:00 +29°C° 0 mm 2 mps 751 mmHg 30%
    19:00 +27°C° 0 mm 2 mps 751 mmHg 32%
    20:00 +25°C° 0 mm 1 mps 751 mmHg 34%
    21:00 +23°C° 0 mm 1 mps 751 mmHg 35%
    22:00 +23°C° 0 mm 2 mps 751 mmHg 36%
    23:00 +21°C° 0 mm 2 mps 751 mmHg 36%

    28 August, Wednesday

    Time Temperature Precipitation Wind Pressure Humidity
    00:00 +20°C° 0 mm 3 mps 751 mmHg 37%
    01:00 +20°C° 0 mm 3 mps 751 mmHg 40%
    02:00 +19°C° 0 mm 3 mps 750 mmHg 43%
    03:00 +18°C° 0 mm 3 mps 750 mmHg 46%
    04:00 +18°C° 0 mm 3 mps 750 mmHg 48%
    05:00 +18°C° 0 mm 3 mps 750 mmHg 50%
    06:00 +17°C° 0 mm 3 mps 750 mmHg 51%
    07:00 +19°C° 0 mm 3 mps 751 mmHg 50%
    08:00 +21°C° 0 mm 4 mps 751 mmHg 48%
    09:00 +23°C° 0 mm 5 mps 751 mmHg 47%
    10:00 +25°C° 0 mm 5 mps 751 mmHg 43%
    11:00 +26°C° 0 mm 5 mps 751 mmHg 40%
    12:00 +27°C° 0 mm 5 mps 751 mmHg 36%
    13:00 +27°C° 0 mm 6 mps 751 mmHg 34%
    14:00 +27°C° 0 mm 6 mps 751 mmHg 32%
    15:00 +27°C° 0 mm 6 mps 750 mmHg 30%
    16:00 +27°C° 0 mm 6 mps 751 mmHg 29%
    17:00 +26°C° 0 mm 5 mps 751 mmHg 29%
    18:00 +25°C° 0 mm 5 mps 751 mmHg 28%
    19:00 +22°C° 0 mm 4 mps 751 mmHg 32%
    20:00 +20°C° 0 mm 4 mps 752 mmHg 36%
    21:00 +18°C° 0 mm 3 mps 752 mmHg 40%
    22:00 +17°C° 0 mm 4 mps 752 mmHg 42%
    23:00 +15°C° 0 mm 4 mps 753 mmHg 43%

    29 August, Thursday

    Time Temperature Precipitation Wind Pressure Humidity
    00:00 +14°C° 0 mm 4 mps 753 mmHg 44%
    01:00 +13°C° 0 mm 3 mps 753 mmHg 47%
    02:00 +12°C° 0 mm 3 mps 753 mmHg 50%
    03:00 +12°C° 0 mm 2 mps 753 mmHg 53%
    04:00 +11°C° 0 mm 3 mps 754 mmHg 55%
    05:00 +10°C° 0 mm 3 mps 754 mmHg 57%
    06:00 +10°C° 0 mm 3 mps 754 mmHg 59%
    07:00 +11°C° 0 mm 3 mps 754 mmHg 54%
    08:00 +13°C° 0 mm 3 mps 755 mmHg 49%
    09:00 +15°C° 0 mm 4 mps 755 mmHg 45%
    10:00 +17°C° 0 mm 4 mps 755 mmHg 41%
    11:00 +18°C° 0 mm 4 mps 755 mmHg 37%
    12:00 +19°C° 0 mm 4 mps 755 mmHg 33%
    13:00 +19°C° 0 mm 4 mps 754 mmHg 32%
    14:00 +20°C° 0 mm 4 mps 754 mmHg 31%
    15:00 +20°C° 0 mm 5 mps 754 mmHg 31%
    16:00 +20°C° 0 mm 4 mps 754 mmHg 31%
    17:00 +19°C° 0 mm 4 mps 754 mmHg 32%
    18:00 +19°C° 0 mm 4 mps 754 mmHg 32%
    19:00 +17°C° 0 mm 3 mps 754 mmHg 36%
    20:00 +16°C° 0 mm 3 mps 754 mmHg 40%
    21:00 +14°C° 0 mm 3 mps 754 mmHg 43%
    22:00 +13°C° 0 mm 3 mps 754 mmHg 46%
    23:00 +12°C° 0 mm 3 mps 755 mmHg 49%
    Show more